Wind_Speed
29 28 28 28 27 27 26 26 25 25 24 23 22 22 21 20 19 18 17 16 15 14 12 12 12 13 13 11 9 9 10 11 12 13 14 15 16 17 19 20 22 23 24 24 23 22 22 23 23 23 21 17 9 2 8 10 11 12 13 14 15 16 16 16 15 15 16 16 15 14 14 14 14 14 14 14 15 16 17 17 17 16 16 15 15 15 14 14
31 31 31 30 30 29 29 28 28 27 27 26 25 25 24 23 22 21 20 19 18 16 15 13 13 13 13 13 11 9 8 10 11 11 12 13 14 15 16 17 19 21 22 23 23 22 22 22 23 23 23 21 15 6 4 10 13 13 13 14 15 16 16 16 15 15 15 15 14 14 14 14 14 14 14 15 15 16 17 18 16 15 14 13 12 12 12 12
34 34 33 33 32 32 32 31 31 30 30 29 28 28 27 26 25 24 23 22 21 20 18 16 14 14 14 14 13 11 9 9 10 10 10 11 12 13 14 15 16 18 20 21 22 22 21 21 22 22 23 23 20 13 3 7 12 14 14 14 14 14 14 14 13 13 13 13 13 13 13 13 14 13 14 15 15 16 16 15 13 11 11 10 10 9 9 9
36 36 36 35 35 35 34 34 33 33 32 32 31 31 30 29 28 27 26 25 24 23 22 19 17 16 15 15 15 13 11 10 9 10 10 9 11 12 12 13 14 15 17 19 21 21 21 21 20 21 22 23 23 19 10 2 8 12 15 14 13 12 12 11 10 10 11 12 12 12 12 12 12 13 14 13 12 11 10 9 8 9 9 8 8 8 7 6
37 37 36 36 36 36 36 35 35 35 34 34 34 33 33 32 31 30 29 28 27 26 25 24 21 19 18 16 16 15 13 12 10 10 11 9 9 11 11 11 12 13 14 16 18 19 21 20 20 20 20 22 23 22 16 7 4 9 13 14 13 12 12 10 9 10 11 11 11 10 10 11 12 11 10 8 7 6 6 6 7 7 8 8 8 7 6 5
37 37 36 36 36 36 35 35 35 35 35 35 35 34 34 34 33 33 32 31 31 30 29 27 25 23 21 19 18 17 15 15 12 12 12 11 10 10 10 10 10 10 11 13 15 17 19 20 20 19 19 20 22 23 20 13 5 5 10 13 14 13 12 10 10 12 12 11 10 9 10 11 11 9 8 6 6 7 8 7 7 7 7 8 8 7 6 5
38 38 38 38 37 37 36 35 35 35 34 34 34 34 34 34 34 34 33 33 33 33 32 31 30 28 26 23 20 18 18 18 16 13 13 13 12 10 10 10 9 9 9 10 11 13 16 17 18 18 18 18 20 23 22 18 11 5 7 11 14 14 13 11 10 12 11 11 11 11 11 11 10 9 9 10 10 11 10 8 6 5 6 7 7 6 6 5
42 42 42 41 41 40 39 39 38 37 36 36 36 35 34 34 34 34 33 33 33 34 34 34 33 32 30 27 24 21 19 21 19 17 15 14 14 12 11 11 11 9 9 8 8 10 12 14 16 17 17 17 18 21 23 21 15 9 4 6 10 12 12 11 11 12 12 12 13 12 12 11 11 11 12 13 13 11 8 6 5 4 4 5 6 6 5 5
46 46 46 46 45 44 44 43 42 41 40 40 39 38 37 36 35 34 34 33 33 34 34 35 35 35 34 31 28 24 22 23 22 20 18 16 15 15 13 12 12 11 9 8 7 7 9 11 13 15 16 16 16 18 22 22 18 13 8 3 5 8 10 11 12 12 13 14 15 14 13 12 12 12 12 12 11 7 5 4 3 3 4 5 6 7 6 5
50 50 49 49 49 48 48 47 46 45 44 44 43 42 40 39 38 37 36 35 34 34 34 35 36 36 36 35 31 28 28 27 24 23 21 19 17 17 16 15 14 13 11 10 8 6 6 9 10 12 14 15 15 15 19 22 20 16 12 6 1 5 8 10 12 13 14 16 16 15 14 12 11 10 9 8 6 4 4 4 3 4 5 5 6 7 6 4
53 53 53 52 52 52 51 50 49 49 48 48 47 46 45 43 42 40 39 38 37 36 36 36 36 36 36 36 34 32 34 31 26 25 24 23 21 19 19 17 16 15 14 12 10 7 5 6 8 9 11 13 13 13 15 19 20 18 14 9 3 3 6 8 10 13 15 16 16 16 15 13 11 10 7 6 5 4 4 4 4 4 5 4 4 4 3 4
55 55 55 55 55 55 55 54 53 52 52 52 51 51 49 48 46 45 43 42 40 39 39 38 37 37 35 35 35 36 37 34 29 28 26 27 26 22 21 20 19 18 17 15 13 11 7 4 5 7 8 10 11 12 12 14 17 18 15 12 9 5 5 7 9 13 15 16 16 16 15 14 13 11 8 7 5 4 4 5 4 4 4 2 2 3 6 8
57 57 57 57 57 58 58 57 56 55 55 55 55 55 54 52 51 49 48 46 44 43 42 41 40 40 37 36 37 37 38 36 32 30 29 29 29 27 25 23 21 20 19 18 17 14 11 7 4 4 5 7 8 9 10 10 13 16 16 13 11 10 6 6 9 12 15 16 15 15 14 13 12 11 9 7 5 3 3 4 4 3 4 5 5 7 9 11
59 59 59 59 59 60 60 60 60 59 58 58 59 59 57 56 55 54 52 50 49 47 46 45 43 43 40 38 39 38 38 37 33 33 33 32 31 30 28 26 24 23 22 21 20 18 15 11 7 4 4 5 5 6 7 8 8 12 15 14 12 11 9 9 9 10 12 13 13 13 13 12 10 9 9 7 5 4 2 3 3 4 7 9 10 11 13 14
61 61 61 61 61 61 62 62 62 61 61 61 61 61 61 60 59 58 56 55 53 52 51 49 47 46 44 41 42 41 39 37 35 35 36 36 34 33 32 29 27 26 24 24 23 22 20 16 11 8 5 4 5 4 4 5 6 7 11 13 13 11 10 11 13 13 12 11 11 11 10 10 9 10 11 11 10 8 6 6 7 10 11 13 14 15 16 17
61 62 62 62 62 63 63 63 63 63 63 63 63 63 63 63 62 61 60 58 57 56 55 53 51 50 48 45 44 45 43 41 37 36 37 38 37 36 34 33 31 29 27 26 26 25 23 21 17 12 9 6 6 5 3 3 3 4 6 10 12 11 11 13 15 16 16 15 14 13 12 11 11 13 16 16 14 12 11 11 13 13 14 14 15 16 17 17
57 58 59 61 61 63 64 64 64 64 64 65 65 65 65 65 65 64 63 61 60 59 58 57 56 54 52 49 47 47 47 45 41 39 38 38 38 38 37 36 34 32 30 28 28 28 26 24 22 18 13 10 8 7 6 3 1 1 2 5 9 10 11 12 13 14 15 15 15 15 15 14 13 14 17 17 16 15 15 14 13 13 13 14 15 15 16 17
52 53 55 56 57 59 61 62 63 64 64 65 66 66 66 67 67 67 66 65 63 62 61 60 59 57 56 54 51 51 51 49 46 43 41 39 39 39 39 38 37 36 34 31 31 31 29 27 26 23 19 14 11 10 9 7 4 2 1 2 5 9 9 9 9 10 11 12 13 15 15 15 14 13 14 16 18 18 15 12 12 13 15 16 16 16 16 16
47 48 50 51 53 54 56 58 59 61 62 62 64 65 66 67 68 68 69 68 67 65 63 62 61 61 60 58 56 55 54 53 50 47 45 43 40 40 40 39 39 39 37 35 34 34 33 30 29 29 24 17 14 13 12 10 9 6 4 4 4 6 8 7 6 6 7 8 10 12 14 15 15 13 13 16 18 16 13 12 13 15 17 18 18 17 17 17
43 45 46 47 48 50 52 54 56 57 59 59 61 62 63 64 65 67 69 70 70 69 67 65 64 64 62 60 59 58 58 57 54 51 48 47 44 41 41 40 40 41 40 39 37 38 37 33 33 34 29 22 19 17 15 14 13 10 8 6 6 6 8 8 7 6 5 5 7 9 12 13 14 14 14 16 16 14 13 14 15 16 17 17 17 16 16 15
41 42 42 43 44 45 47 50 51 53 55 57 58 59 60 61 61 63 65 67 69 70 69 68 67 67 65 63 62 61 61 60 58 55 52 51 48 45 43 42 42 42 42 42 41 41 39 36 37 38 34 28 23 21 19 18 16 14 12 10 9 8 9 9 9 8 7 6 7 8 10 12 12 13 13 14 15 14 14 17 17 16 15 14 13 13 13 13
39 40 40 40 40 40 42 44 46 48 51 53 55 56 58 59 60 60 62 64 66 66 68 69 69 70 68 65 64 64 64 64 61 58 57 55 52 50 47 45 44 43 43 43 44 44 41 40 43 42 38 33 27 25 24 22 20 18 16 15 13 11 10 11 11 10 9 8 8 9 10 11 11 12 13 14 14 15 16 17 17 15 13 11 10 10 10 10
40 41 41 41 40 38 38 40 40 42 45 47 49 52 54 56 58 59 60 62 64 63 64 66 67 68 69 68 68 66 66 66 64 62 60 58 56 54 51 49 47 45 44 44 45 45 43 44 47 46 42 37 31 29 29 26 23 22 21 19 17 14 13 12 12 12 11 10 9 10 11 11 12 12 13 14 15 15 16 16 16 14 13 11 9 8 7 7
41 43 44 44 43 41 40 40 39 39 41 42 44 46 49 52 54 56 57 60 64 63 62 63 64 65 67 68 70 69 68 68 67 65 63 62 61 58 56 54 51 47 46 45 46 46 46 48 50 49 44 40 36 33 32 30 28 27 25 23 20 19 16 14 14 14 13 12 12 11 12 12 12 12 13 14 15 16 17 17 16 15 14 12 10 8 7 6
43 45 46 47 46 45 43 43 42 42 42 41 41 42 43 46 48 52 54 56 61 64 62 61 63 63 63 65 68 70 71 70 68 68 67 66 65 62 60 58 55 51 49 49 47 47 48 50 52 52 46 43 41 37 35 34 33 31 29 27 25 23 19 16 17 16 15 15 14 13 13 14 14 14 14 15 16 17 18 18 17 16 15 14 12 11 9 8
45 46 47 48 49 48 47 45 45 45 45 44 43 42 41 42 43 46 49 51 55 60 61 60 62 63 63 63 65 68 70 70 69 70 70 69 67 66 64 62 59 56 54 52 50 50 49 50 54 54 48 46 44 41 40 38 36 34 33 33 29 26 22 21 21 19 18 17 15 15 16 16 16 15 15 16 17 18 19 19 19 18 17 16 15 13 12 11
46 47 48 50 50 51 49 47 46 46 47 47 47 46 44 43 42 43 45 46 49 55 58 58 60 62 63 63 64 66 67 68 69 70 72 72 70 69 67 65 64 61 58 56 53 52 51 51 56 56 50 48 46 45 45 43 40 39 39 38 33 28 26 25 24 23 20 17 16 18 18 17 17 17 17 17 17 18 19 20 20 20 19 18 18 17 15 14
48 48 50 52 52 53 53 50 48 48 49 50 49 49 48 48 47 45 44 43 45 50 53 54 57 60 61 62 64 66 67 66 67 68 72 74 72 72 71 69 69 66 63 61 58 55 55 55 58 57 53 49 47 49 50 48 46 44 42 41 36 32 30 29 28 27 23 18 17 20 19 18 18 18 18 18 18 19 19 20 21 21 21 21 21 20 19 18
50 50 52 55 56 56 56 54 52 51 52 52 51 51 50 50 51 50 48 46 48 50 50 51 54 57 60 62 63 65 66 66 65 66 69 73 74 74 74 73 73 70 67 65 62 59 59 59 60 60 55 50 51 53 53 51 50 48 44 43 40 36 33 31 30 28 25 20 20 23 22 20 19 19 20 21 21 20 19 19 20 21 21 21 22 21 20 19
53 53 53 56 58 59 60 59 56 56 55 55 54 54 53 52 53 53 52 52 55 55 51 49 51 53 57 59 61 63 65 66 66 65 66 70 74 75 76 76 75 73 70 69 66 62 61 62 62 62 57 53 54 54 53 54 54 51 47 44 41 37 34 34 33 31 28 23 22 27 27 23 21 21 23 22 21 19 19 21 21 21 21 20 19 19 19 18
57 57 56 57 59 61 63 62 61 60 59 59 59 57 56 55 55 54 53 55 60 59 55 52 51 52 54 56 59 61 62 64 66 66 65 67 71 74 77 78 78 76 74 72 70 66 65 65 65 64 61 58 56 54 55 56 55 54 49 44 41 38 36 36 34 33 29 24 25 30 30 27 25 25 26 23 20 20 21 22 21 21 21 20 19 19 18 18
62 61 60 59 61 63 65 66 66 65 63 63 62 61 59 57 55 55 55 58 62 61 60 57 52 51 51 53 55 57 59 62 64 66 66 66 68 72 76 78 79 79 77 76 75 71 69 69 69 67 65 62 58 57 58 57 55 56 52 45 42 40 37 35 34 33 30 27 30 34 31 30 30 29 27 25 23 22 24 24 21 21 22 21 20 20 19 19
66 65 65 63 63 66 68 69 70 69 67 67 66 65 64 60 55 56 59 62 63 64 64 62 55 52 50 50 52 53 56 60 62 65 67 67 67 69 73 77 79 81 81 80 79 76 73 73 73 70 68 66 62 60 60 57 56 58 55 48 45 42 39 37 35 34 33 32 36 38 33 32 37 33 28 29 27 25 26 26 24 24 24 23 22 22 22 20
71 70 69 68 68 69 71 72 74 74 73 71 70 70 68 62 59 61 63 64 65 66 67 66 62 59 55 51 49 50 54 57 59 62 65 67 67 67 70 74 78 81 84 83 81 79 77 76 75 72 71 70 66 64 62 60 60 61 59 54 50 46 43 42 40 39 38 38 42 42 34 35 42 37 31 32 30 27 29 30 29 28 26 24 24 24 24 22
76 75 73 72 72 73 74 75 77 78 77 76 75 73 70 66 66 68 67 66 67 67 68 69 68 64 60 54 50 49 52 53 56 60 62 65 68 68 69 72 76 80 84 84 84 82 81 79 78 77 77 74 71 69 67 65 64 63 63 59 53 49 46 46 45 44 44 44 45 43 36 40 47 40 33 33 31 31 33 33 33 32 28 27 27 27 26 25
81 80 78 77 77 77 78 79 80 81 80 80 79 75 72 72 73 72 71 71 71 70 70 72 70 67 64 60 55 52 51 51 54 57 59 62 66 69 69 70 73 78 81 84 86 86 84 83 82 81 80 78 76 74 72 70 67 66 66 61 55 52 50 50 48 46 48 46 45 44 40 45 50 41 35 35 35 35 36 36 36 33 31 30 29 29 28 28
84 84 83 81 81 82 82 83 83 84 83 83 81 77 76 77 78 77 76 76 75 73 72 73 73 71 68 66 62 56 52 51 51 54 57 59 62 66 70 71 73 76 79 82 87 88 88 87 85 84 83 81 80 80 78 74 71 69 68 63 59 58 55 53 50 48 48 45 45 46 44 48 49 40 37 39 39 39 39 38 38 36 35 34 32 31 31 30
86 88 88 87 86 86 87 87 87 87 88 87 84 81 82 83 82 82 82 80 79 76 74 74 74 74 72 70 67 61 57 54 50 51 55 56 58 62 67 71 73 75 78 81 84 88 90 90 87 86 87 86 86 86 83 78 74 72 70 67 65 62 58 56 53 50 48 45 45 47 47 51 49 41 41 43 42 42 41 40 40 39 38 37 35 34 33 32
90 92 92 91 91 91 91 91 91 92 92 90 88 86 87 88 87 87 86 85 82 78 76 75 76 76 75 74 71 65 62 59 52 51 54 54 56 59 63 70 74 75 77 78 81 86 89 92 91 89 91 91 89 89 85 79 76 75 72 70 69 65 61 60 56 53 50 47 47 48 48 51 51 45 45 45 45 45 44 42 42 41 40 39 38 36 35 35
94 96 96 96 97 97 96 96 97 97 97 95 93 92 92 92 92 91 90 89 85 81 78 77 77 77 77 77 74 69 66 63 56 54 53 53 54 56 60 67 72 75 76 77 79 82 87 92 94 92 94 94 91 88 85 80 79 78 74 73 72 68 66 64 59 56 54 50 49 48 48 52 55 51 48 48 47 47 45 44 43 42 42 41 40 39 38 38
100 100 101 102 102 103 102 102 102 101 100 98 97 97 97 97 97 96 94 92 89 84 81 79 78 78 78 78 77 73 70 67 62 57 54 53 55 56 59 65 70 74 76 75 77 80 83 90 95 96 96 95 91 88 86 85 85 82 79 77 75 72 71 69 61 58 56 51 48 48 48 54 58 54 51 50 48 48 47 46 44 42 43 43 42 41 41 40
106 106 106 107 107 108 108 107 107 106 105 103 102 102 102 102 101 100 97 94 91 87 84 82 80 79 80 79 78 77 74 70 66 60 56 55 56 58 60 63 68 73 76 75 75 78 82 87 93 97 97 95 93 91 91 91 89 87 84 82 81 78 76 72 63 60 59 52 50 51 50 54 58 57 55 52 50 50 49 48 46 45 46 46 45 44 44 43
111 112 112 112 112 113 113 112 112 112 111 109 108 108 108 107 106 104 100 96 93 90 87 84 82 82 81 81 80 79 77 73 68 63 60 57 58 60 62 63 67 71 74 76 76 78 80 83 88 94 97 97 96 95 95 95 93 93 89 86 85 81 77 72 66 64 62 57 56 55 51 53 59 60 59 56 54 53 51 50 50 49 48 49 48 47 46 44
116 117 118 118 117 117 118 117 117 117 116 116 115 114 112 111 110 107 104 99 96 93 90 87 85 84 84 83 82 82 79 76 71 67 64 61 60 62 63 63 65 68 72 76 77 77 78 80 85 90 95 99 100 99 97 95 95 94 90 87 85 82 78 75 72 71 67 62 61 57 51 54 62 63 62 60 58 56 54 52 52 50 50 51 50 49 47 46
121 121 122 122 122 122 122 122 122 121 121 120 118 117 116 114 112 110 107 102 98 96 92 89 88 87 86 85 83 83 82 78 74 71 68 65 63 64 65 64 64 67 71 75 77 76 76 79 82 86 91 96 100 100 97 94 94 94 90 87 86 83 82 79 77 75 69 63 63 58 53 57 63 63 64 63 61 59 57 55 54 53 52 52 51 50 48 48
125 125 125 125 125 125 125 125 124 124 123 122 120 119 118 116 114 112 109 105 101 98 95 92 90 89 88 86 85 84 83 81 78 75 71 68 67 67 66 64 65 66 69 73 76 76 76 77 79 82 86 89 95 99 98 97 97 96 94 91 89 87 86 84 82 78 70 66 66 60 57 59 61 62 66 66 64 63 61 59 57 56 54 53 52 52 50 49
126 126 126 127 127 127 126 125 125 125 124 123 121 121 120 119 117 114 111 107 104 101 98 95 93 91 90 88 87 86 85 83 81 77 73 70 69 68 66 65 65 66 67 70 74 76 76 75 77 80 83 85 91 98 101 102 100 99 98 96 93 92 90 88 85 79 75 74 70 63 61 60 58 60 67 70 69 66 65 64 61 59 57 55 53 53 52 51
128 127 127 127 127 128 127 126 126 125 124 123 122 121 121 120 119 116 113 110 107 103 100 97 95 93 91 90 89 87 86 85 82 78 75 72 70 70 69 67 66 65 65 68 71 74 75 75 76 78 81 84 88 94 101 104 103 102 101 99 97 96 94 91 88 83 82 79 72 66 65 62 59 62 67 72 73 70 69 68 65 62 60 56 55 55 54 53
129 128 128 127 127 128 128 128 127 125 124 122 121 121 120 120 120 118 115 110 107 104 101 99 97 95 94 93 91 89 87 86 83 81 78 74 72 72 71 69 67 66 65 66 68 71 73 74 76 77 79 82 86 90 96 102 105 105 103 101 100 98 95 93 90 88 87 83 76 72 71 66 63 65 69 73 75 73 72 70 65 62 61 59 57 56 55 55
128 127 126 126 125 125 126 127 126 124 122 121 120 119 119 119 119 117 114 110 107 105 103 102 100 98 96 94 91 89 88 87 85 82 78 75 74 74 72 70 68 67 66 65 65 67 69 72 75 76 77 80 84 87 92 98 104 106 105 103 101 99 97 94 92 91 90 86 81 78 75 68 66 68 72 75 77 75 73 69 65 64 63 61 59 58 57 56
121 120 119 118 117 117 118 119 119 118 117 116 116 115 115 116 116 114 112 110 108 107 105 104 101 98 95 93 90 90 89 87 85 83 79 77 76 75 73 71 69 67 66 65 64 64 66 70 74 75 76 78 81 85 89 94 101 106 106 105 102 100 98 95 93 92 90 87 84 81 76 70 68 70 73 76 77 75 72 70 68 67 65 63 61 60 59 57
110 109 108 106 105 106 107 107 107 107 107 108 108 109 110 111 112 111 111 110 110 108 105 103 100 98 96 94 92 91 88 85 84 83 80 78 77 75 74 73 70 68 67 65 63 63 64 67 71 74 75 76 80 84 88 91 97 103 106 104 102 100 98 95 93 92 90 89 86 82 76 73 72 73 75 76 77 75 72 72 71 69 67 65 62 61 60 59
Wind_Direction
259 260 261 262 263 264 266 267 268 270 271 272 273 274 275 276 277 279 279 281 284 288 292 298 305 311 319 328 345 356 358 360 5 14 18 20 25 30 34 36 36 35 33 31 31 33 35 38 42 44 44 41 43 162 198 199 202 205 208 208 207 209 209 208 212 217 221 223 227 232 238 244 249 255 260 263 266 268 268 266 265 264 265 265 265 265 264 261
259 260 261 262 263 264 265 266 267 268 269 270 271 272 272 273 274 276 278 279 280 281 283 287 292 298 305 313 323 335 343 348 352 0 9 12 16 23 27 31 35 35 33 30 28 28 30 34 38 42 42 40 38 45 188 202 202 202 207 214 214 212 212 210 212 218 224 226 228 232 237 242 248 253 258 260 262 262 261 260 261 262 262 262 261 260 258 253
259 260 260 261 262 262 263 264 265 266 267 269 269 270 271 271 272 272 274 276 278 278 278 278 282 288 293 300 308 316 325 332 338 343 355 2 6 12 19 24 29 33 33 31 28 25 26 29 34 39 41 41 38 36 58 196 203 203 204 211 217 218 218 214 212 216 224 229 230 234 238 243 248 252 255 256 255 254 254 256 259 260 258 256 252 247 243 239
259 259 260 261 261 262 262 263 264 265 266 267 268 268 269 270 271 271 272 272 274 276 276 275 275 278 283 290 296 302 308 315 322 326 335 347 354 360 8 16 22 27 31 31 29 25 23 24 28 35 40 42 40 36 33 136 195 204 205 206 211 218 220 213 211 220 230 234 235 238 242 247 251 251 251 249 248 248 250 252 255 254 248 240 230 221 215 211
260 261 261 261 262 262 263 263 264 264 265 266 266 267 267 268 268 270 271 272 272 273 273 274 273 272 274 279 286 291 296 299 304 310 316 327 339 345 353 2 12 19 25 28 28 27 22 20 22 29 37 41 42 40 36 44 162 196 204 206 206 214 217 206 209 227 233 235 235 236 240 243 242 239 236 232 229 232 233 231 231 230 226 221 211 201 191 188
262 262 262 263 263 263 264 264 265 265 265 266 266 266 267 267 267 267 268 270 271 272 272 272 272 271 270 271 274 281 286 288 290 295 302 310 319 329 336 344 356 5 16 23 25 26 23 20 18 22 31 39 43 43 41 44 72 168 195 205 206 211 211 199 206 221 224 227 226 223 227 227 223 215 204 200 203 205 202 200 203 205 210 214 212 204 193 189
262 263 263 263 263 264 264 264 265 265 265 266 266 267 267 267 267 266 266 266 267 269 271 271 271 271 269 268 268 272 276 279 282 284 289 298 302 308 318 325 335 346 359 14 20 22 23 20 17 18 25 34 43 45 43 44 54 105 176 198 204 209 208 198 206 216 216 218 219 213 213 210 203 198 193 195 196 193 191 191 195 200 211 221 226 225 216 211
263 264 264 264 264 264 264 264 264 264 264 264 265 265 266 266 267 267 267 266 265 265 266 268 269 269 269 268 266 266 268 271 275 276 279 286 291 293 299 308 314 323 335 352 11 18 19 20 18 15 19 28 39 46 46 44 46 57 104 177 195 206 208 203 211 218 212 212 214 205 200 198 196 195 192 191 190 186 189 197 206 212 226 247 257 259 255 245
264 265 265 265 265 265 264 264 264 264 263 263 263 263 263 264 264 266 266 266 266 265 264 264 265 266 267 267 266 265 264 264 267 270 272 274 279 284 286 292 299 304 313 324 345 9 15 16 17 15 14 21 32 44 48 46 43 46 53 97 180 197 204 206 212 215 205 204 208 198 188 188 189 188 184 182 182 184 204 221 233 247 262 277 288 290 281 261
266 266 266 266 266 266 265 265 265 264 264 264 263 263 262 262 262 262 263 264 265 265 265 264 263 263 264 265 266 265 262 258 260 266 268 268 269 273 277 280 286 291 296 304 315 339 5 8 12 14 12 16 24 38 49 49 44 44 47 53 149 193 201 203 204 205 200 200 204 195 181 177 177 177 177 178 185 212 241 250 265 290 290 292 302 297 278 244
268 267 267 266 266 266 266 266 265 265 265 264 264 263 262 262 261 260 260 261 261 263 263 264 264 263 263 263 263 262 260 258 257 260 264 265 264 265 270 274 278 282 286 290 298 307 332 357 1 7 9 12 18 29 46 52 50 46 48 53 67 181 198 197 194 201 205 204 204 195 180 173 173 174 178 188 206 232 254 272 285 294 290 296 303 282 222 163
269 269 269 268 268 267 267 266 266 266 265 265 265 264 264 263 262 261 260 259 259 259 260 261 262 262 262 263 261 259 260 260 257 257 259 263 264 263 265 268 272 276 280 283 286 291 296 317 345 353 1 8 13 20 35 52 56 53 51 53 59 90 167 187 191 200 206 205 202 194 183 177 175 176 181 190 205 230 267 285 281 275 265 250 230 187 149 134
269 269 269 269 269 269 268 267 267 266 266 266 265 265 265 264 263 262 260 259 258 257 257 258 260 260 261 261 261 259 259 259 258 257 255 257 261 262 261 263 267 271 275 278 279 281 282 279 296 326 341 354 6 14 24 43 58 59 55 52 54 66 98 153 179 194 199 199 196 191 186 182 181 181 184 190 202 225 269 277 262 239 207 171 165 160 141 130
269 268 268 268 268 268 268 268 268 267 266 266 266 266 265 264 264 263 262 260 259 258 257 256 257 258 258 259 260 259 258 258 256 255 254 252 255 257 259 259 261 265 268 272 274 275 276 273 267 275 303 325 343 3 16 31 51 64 63 58 56 61 76 105 138 165 180 184 184 184 182 179 177 175 173 171 167 159 181 224 203 172 158 145 141 137 128 123
270 269 269 268 268 268 268 268 268 267 267 266 266 266 265 265 264 263 262 261 260 259 258 257 256 256 256 256 258 259 258 258 255 253 252 251 250 252 255 256 256 258 262 266 270 271 272 271 265 256 260 281 302 329 1 21 37 62 74 70 65 68 80 95 110 122 132 140 145 150 153 149 144 141 139 134 131 133 148 161 149 138 134 129 126 123 120 119
269 269 269 268 268 268 267 267 267 267 267 266 266 266 266 265 264 263 262 261 260 259 258 257 256 255 254 253 255 257 257 256 254 251 250 250 249 248 249 252 253 254 256 260 264 266 268 270 267 258 249 251 267 285 305 354 23 45 79 88 83 81 87 98 106 109 108 108 109 113 117 118 119 123 124 123 124 132 141 141 136 130 127 125 124 123 121 119
270 269 269 268 267 267 267 266 266 265 265 265 265 265 265 265 265 264 263 261 259 258 258 257 256 255 254 253 252 254 255 255 253 250 249 249 249 247 246 247 249 251 251 253 257 261 262 265 266 261 252 242 246 260 271 281 319 19 73 110 109 102 98 102 109 110 109 106 102 100 104 109 115 122 125 124 128 134 137 138 136 132 130 128 126 124 123 121
273 272 271 270 268 268 267 266 265 265 264 263 263 264 264 264 264 264 263 262 260 259 257 257 256 255 254 253 251 251 252 253 252 250 249 248 248 248 246 245 246 248 248 248 252 256 257 260 263 261 253 242 241 248 255 258 253 240 230 185 149 134 122 117 119 119 118 114 109 104 103 108 115 126 131 129 132 136 138 144 144 137 132 128 125 123 123 122
276 275 273 272 271 269 268 268 267 266 264 263 263 262 262 262 263 263 263 262 261 260 258 257 256 255 253 252 251 250 250 251 250 249 249 248 246 247 247 245 244 245 246 246 248 251 253 255 258 258 252 244 242 243 244 250 249 238 225 222 210 175 153 147 147 146 135 123 119 116 114 115 119 134 142 136 137 139 139 146 145 139 133 129 125 123 123 124
279 278 276 275 273 271 270 269 268 267 266 265 264 263 262 261 261 261 262 262 261 260 259 257 256 254 253 252 251 250 250 249 249 247 247 248 246 244 245 245 244 243 244 245 245 248 250 251 254 256 252 245 242 242 241 244 245 240 231 225 226 215 191 177 176 184 178 153 138 131 129 128 130 139 146 142 143 142 140 143 142 137 134 130 127 125 125 127
282 281 280 278 276 274 272 271 269 268 267 266 265 264 263 263 261 261 261 261 260 260 259 257 256 255 253 252 251 250 249 249 248 247 246 246 245 243 243 243 243 242 242 243 244 245 247 249 251 253 252 246 241 242 242 241 242 240 236 231 226 223 220 207 193 190 194 186 167 152 145 144 145 147 149 147 147 146 145 145 144 141 138 134 131 129 128 128
289 287 285 283 280 278 276 274 272 270 268 267 266 265 264 263 262 262 261 261 260 259 259 257 256 255 254 252 250 249 249 249 248 246 245 244 244 243 242 241 241 241 241 241 243 244 245 246 248 250 250 247 242 242 244 240 240 240 237 236 231 223 225 226 215 202 195 195 183 168 160 157 158 159 160 157 153 151 152 152 151 151 150 148 143 137 135 135
295 294 293 291 288 284 282 280 277 275 272 269 267 266 264 263 263 262 261 261 261 259 259 259 256 255 255 253 251 249 247 248 248 246 245 244 243 242 241 240 239 238 239 240 241 243 243 244 247 248 248 248 243 240 242 241 239 240 238 236 234 229 225 227 227 219 207 202 193 180 174 172 170 170 171 169 164 161 161 163 164 166 168 169 167 161 159 155
297 298 297 296 294 292 290 287 285 283 279 274 271 268 266 264 263 262 261 261 261 260 259 259 258 256 255 253 252 250 247 246 246 246 244 244 243 241 240 240 238 236 237 239 239 240 241 242 246 247 247 247 245 241 241 242 241 240 238 235 233 233 229 226 229 226 218 212 204 194 188 185 183 181 181 180 176 173 173 175 178 181 184 188 191 193 197 195
294 296 297 297 296 295 293 292 291 290 287 283 278 273 269 266 264 263 261 261 261 261 258 258 259 258 256 254 253 251 248 246 245 244 244 243 242 241 239 239 237 235 235 236 238 239 240 241 245 246 245 246 246 243 241 241 241 240 240 237 232 231 230 231 232 227 222 218 211 205 199 195 193 191 191 190 187 186 185 186 188 192 197 202 207 212 218 222
289 290 291 293 294 293 292 292 292 292 291 290 287 282 277 272 269 266 263 262 263 262 259 257 257 257 257 255 254 252 250 247 244 243 242 242 241 241 239 238 237 235 234 234 235 238 239 241 244 244 243 243 244 244 243 241 241 240 240 238 231 228 229 232 235 230 224 221 216 214 211 206 202 198 199 200 199 197 196 197 198 200 205 210 216 220 225 231
285 286 287 289 289 290 289 288 288 289 289 289 289 288 285 282 277 272 268 265 265 266 262 258 256 255 255 255 254 254 252 249 245 242 241 241 240 240 239 238 237 235 234 233 232 236 239 240 243 243 241 241 242 244 244 242 240 239 239 238 232 227 227 230 234 234 228 224 224 224 221 217 212 206 206 207 209 210 207 207 208 209 212 216 219 221 225 231
284 285 286 287 288 287 286 285 284 284 285 285 286 287 287 286 284 280 276 271 271 270 267 262 258 255 254 253 253 254 253 251 247 244 242 240 239 238 238 237 237 235 233 232 231 232 236 238 241 242 240 239 239 241 242 242 240 237 237 238 234 228 226 228 232 235 232 227 231 235 231 225 220 214 211 210 213 217 216 215 218 219 220 220 220 221 222 226
284 285 286 287 287 287 286 285 283 282 282 283 284 284 285 286 286 284 283 281 280 277 271 266 262 258 255 254 252 252 253 252 249 246 243 241 238 237 237 237 236 235 233 232 230 230 234 237 240 242 239 237 237 238 240 242 241 239 237 237 236 230 227 229 232 235 235 230 234 240 238 232 228 224 221 217 217 219 220 220 223 224 224 223 223 223 223 223
283 284 285 286 287 287 287 287 285 282 280 280 281 281 282 284 285 285 287 287 285 281 276 270 265 260 256 255 254 253 252 252 251 248 245 243 240 237 236 236 236 235 233 233 231 229 233 237 239 242 241 237 237 238 240 242 243 241 238 236 237 234 230 230 231 233 233 230 235 241 242 238 234 233 230 226 224 224 223 223 225 228 231 231 230 228 225 223
282 283 284 284 285 286 286 287 286 284 282 280 279 279 280 281 283 285 287 287 284 282 280 275 269 264 259 256 255 254 253 252 252 250 246 244 242 239 236 235 235 235 234 233 232 228 231 235 238 241 242 239 238 238 240 241 243 244 241 238 238 237 233 231 231 233 233 232 236 242 243 241 237 235 237 235 231 230 231 229 228 232 236 235 233 232 231 228
281 281 282 282 283 283 285 285 285 284 283 281 280 279 279 279 281 285 286 283 283 282 281 278 274 269 264 258 255 254 253 252 251 250 248 244 242 241 239 235 233 234 233 233 232 229 228 232 235 237 240 239 237 237 239 240 243 245 244 240 238 238 236 234 233 235 235 235 238 240 241 243 239 235 238 241 236 232 237 238 235 236 238 236 234 235 236 236
281 280 280 280 280 281 282 283 283 283 282 281 280 279 278 278 281 283 283 281 282 281 280 279 277 273 269 263 258 254 252 251 250 250 249 246 243 241 240 238 234 233 232 232 232 229 228 230 232 234 237 239 238 237 239 240 242 245 245 241 239 238 238 237 236 236 236 235 238 238 236 241 243 236 234 240 238 234 239 244 241 238 239 239 240 241 241 241
280 280 279 279 278 278 280 281 281 281 280 280 280 279 279 280 280 281 281 280 280 279 278 278 277 275 273 268 263 258 253 251 250 249 249 248 246 242 240 239 236 233 231 231 232 230 228 230 231 233 236 238 237 237 238 238 239 242 243 240 237 236 235 235 235 233 233 232 236 237 232 237 244 239 231 237 240 237 239 242 243 242 241 241 243 246 247 247
280 280 279 278 277 277 278 279 279 279 279 278 278 278 279 281 280 278 278 278 278 276 276 276 276 275 274 272 267 262 256 251 249 249 247 247 247 244 241 239 237 235 232 230 230 230 229 229 230 231 234 235 236 235 235 236 237 239 241 240 237 235 233 232 231 230 231 230 234 237 232 235 242 240 235 237 238 238 239 241 244 245 244 243 244 248 250 250
279 279 279 278 278 277 277 278 278 278 277 277 277 278 280 280 278 277 276 276 276 275 273 273 274 274 274 273 270 265 261 254 249 248 247 245 245 246 243 240 237 236 234 230 229 229 229 228 228 230 232 234 235 235 234 233 234 237 240 240 239 237 234 233 232 231 232 231 234 237 235 237 242 240 238 239 238 239 240 242 245 246 245 244 244 247 250 251
278 278 278 278 278 278 278 278 277 277 276 275 276 277 278 278 277 276 275 274 274 273 271 271 272 273 273 273 271 268 265 259 252 249 247 245 243 244 244 242 238 236 235 232 229 228 228 228 227 228 230 231 234 235 234 232 232 234 236 238 237 236 234 234 233 232 233 233 234 237 237 240 243 240 239 240 240 241 242 244 246 247 247 246 246 247 249 251
278 278 278 278 277 277 277 277 277 276 275 275 275 276 276 276 277 276 274 272 271 271 270 269 270 271 271 271 270 269 267 263 256 251 248 246 244 243 243 243 241 237 234 233 230 228 227 228 227 228 230 230 231 233 233 232 232 234 235 236 236 236 234 234 233 233 234 234 234 237 239 242 244 240 238 240 241 242 243 244 245 246 247 248 248 248 249 251
278 278 278 277 277 276 276 275 275 275 275 275 275 274 274 274 275 276 274 271 270 269 268 267 266 267 268 269 269 269 267 265 259 253 249 246 244 243 243 243 242 239 235 232 231 229 227 228 227 227 229 230 230 232 233 232 232 234 234 236 237 237 236 235 233 232 233 232 233 235 238 243 245 241 239 241 242 242 243 243 244 245 247 248 249 250 250 251
277 278 277 277 277 276 275 274 274 274 274 274 273 272 272 273 274 275 273 271 268 267 266 265 264 265 265 267 268 267 266 265 262 256 251 246 244 243 243 243 242 241 238 233 231 230 228 228 227 226 228 229 229 232 234 234 234 233 233 236 238 238 238 237 235 234 234 232 233 235 237 242 245 242 240 241 242 243 244 244 244 246 247 248 249 250 251 252
277 277 277 277 277 276 275 274 273 273 272 272 271 271 271 271 272 273 272 270 268 266 265 263 262 262 263 264 265 266 265 264 262 259 254 248 245 243 242 243 242 242 240 235 231 230 229 228 227 226 228 229 229 230 232 233 233 233 232 234 236 236 237 238 236 236 236 234 234 235 235 240 245 245 243 244 245 246 247 247 247 248 249 250 250 251 251 252
278 277 277 276 276 275 275 274 273 273 272 271 270 270 270 270 271 271 270 269 266 264 262 261 261 260 260 261 262 263 263 262 261 259 256 251 247 244 242 242 242 242 241 238 234 230 229 228 228 226 227 229 228 228 230 231 232 232 231 231 233 234 235 236 235 235 235 232 231 232 232 237 245 248 246 245 246 247 248 249 249 249 249 251 251 252 253 254
277 277 276 275 274 274 273 273 273 272 272 271 271 270 270 270 269 269 268 266 264 262 260 259 259 258 258 258 259 260 261 261 261 259 257 253 249 246 243 241 241 242 241 239 236 232 229 228 229 228 226 227 228 227 228 229 231 231 230 230 232 233 235 236 235 234 234 232 230 230 230 233 240 246 248 247 246 247 247 248 248 248 249 251 252 252 254 256
275 274 273 273 272 272 271 271 271 271 271 270 270 269 268 268 267 267 266 264 262 260 259 258 257 257 257 257 257 259 260 260 260 259 257 254 251 248 244 241 241 241 241 240 238 234 231 228 229 228 227 227 228 228 227 229 231 232 231 231 232 233 235 236 235 234 234 234 233 233 231 231 235 242 247 249 249 249 249 248 249 249 250 251 252 254 255 257
273 272 271 271 270 270 269 269 269 269 268 268 268 267 266 265 265 264 264 263 261 259 257 256 255 255 255 255 255 256 258 258 258 257 256 254 252 249 246 242 241 241 241 241 239 236 233 230 229 229 228 227 228 229 229 229 231 233 233 232 232 233 234 236 236 236 235 235 236 236 233 231 233 239 245 249 251 251 251 250 250 250 250 251 253 255 255 256
272 271 270 270 269 268 267 267 267 266 265 265 264 264 264 263 262 262 261 261 259 257 255 254 253 253 253 253 253 254 255 255 255 255 254 253 251 250 247 243 241 241 240 240 240 238 235 232 230 229 229 228 228 229 229 228 229 231 231 231 231 231 233 234 235 235 234 234 235 235 233 231 233 238 242 246 248 250 251 250 250 250 251 252 254 255 256 257
271 270 269 269 268 267 266 265 265 264 263 262 261 261 261 260 260 259 258 258 257 255 253 252 251 251 251 251 251 251 251 252 253 253 253 252 251 250 248 245 242 241 240 240 240 239 236 233 231 230 229 228 228 228 228 228 228 229 230 230 229 229 230 231 233 233 233 233 233 233 232 231 232 235 239 242 244 246 248 249 249 250 250 251 253 255 257 258
270 269 268 267 266 266 265 264 263 262 261 260 259 258 258 257 257 256 255 255 254 253 252 251 250 249 248 248 248 248 249 250 252 252 251 251 250 249 248 246 243 241 240 240 240 239 238 235 233 231 229 228 228 227 227 228 228 228 229 230 230 229 229 229 230 230 231 231 230 229 229 227 227 229 233 238 241 242 244 245 246 248 250 251 253 254 256 258
270 268 267 266 265 264 263 262 262 260 259 258 257 256 255 254 254 254 253 252 252 251 250 248 247 246 245 245 246 247 247 248 249 249 249 248 248 248 247 245 244 241 240 239 239 239 239 237 234 232 230 229 228 228 228 228 228 228 229 229 230 230 230 230 229 229 230 230 227 226 226 224 223 225 229 234 238 240 241 243 245 248 250 251 252 253 255 257
270 268 267 266 265 264 263 262 261 260 259 257 256 255 254 253 252 252 251 250 248 247 246 245 244 244 244 244 245 245 245 245 247 248 248 247 246 246 246 245 243 242 240 239 238 238 239 238 236 233 231 230 229 229 228 228 228 229 229 229 230 231 231 230 230 230 230 230 228 228 228 226 224 225 227 232 236 239 241 244 245 247 249 251 252 253 254 256
271 270 268 267 266 264 263 262 261 260 259 257 256 254 253 252 251 250 249 247 245 244 243 243 243 243 243 242 242 242 243 244 245 246 246 245 245 245 246 245 244 242 241 240 238 238 238 238 237 234 232 230 229 229 229 228 228 228 228 229 229 230 231 231 231 232 232 231 230 229 230 229 227 227 228 232 235 238 240 243 245 246 249 251 252 253 254 255
271 270 269 267 266 264 263 261 260 259 258 257 255 253 251 250 249 248 247 245 244 243 242 242 241 240 239 239 239 240 241 241 242 243 243 243 243 244 244 244 243 241 240 240 238 237 237 238 238 236 233 231 230 229 229 228 228 228 228 228 229 230 231 232 232 233 233 233 233 231 230 229 228 227 229 232 235 237 239 241 243 246 248 251 252 253 254 255
Height
10992 10992 10992 10992 10993 10993 10993 10993 10993 10993 10994 10994 10994 10994 10994 10995 10995 10995 10996 10996 10997 10997 10998 10998 10997 10997 10997 10997 10997 10997 10995 10994 10993 10992 10991 10990 10989 10988 10987 10986 10985 10984 10982 10981 10980 10979 10978 10976 10975 10974 10973 10973 10972 10972 10972 10972 10973 10974 10974 10975 10975 10976 10977 10978 10979 10980 10981 10982 10982 10983 10984 10984 10985 10985 10986 10986 10986 10986 10986 10986 10987 10987 10987 10987 10986 10987 10987 10987
10989 10989 10990 10990 10990 10991 10991 10991 10991 10992 10992 10992 10992 10992 10993 10993 10993 10993 10994 10994 10995 10996 10997 10997 10997 10996 10996 10997 10997 10997 10996 10995 10994 10993 10992 10991 10990 10989 10988 10987 10986 10985 10984 10982 10981 10980 10978 10977 10976 10974 10973 10973 10972 10972 10971 10971 10971 10972 10973 10974 10974 10975 10976 10977 10978 10979 10980 10980 10981 10981 10982 10983 10984 10984 10984 10985 10985 10985 10985 10985 10985 10985 10986 10985 10985 10985 10985 10985
10986 10986 10986 10987 10987 10988 10988 10989 10989 10989 10990 10990 10990 10990 10991 10991 10991 10992 10992 10992 10993 10993 10994 10995 10996 10996 10996 10996 10996 10997 10996 10995 10994 10993 10993 10992 10991 10990 10989 10988 10987 10986 10985 10983 10982 10981 10979 10978 10977 10975 10974 10973 10972 10971 10970 10970 10970 10971 10972 10972 10973 10973 10975 10976 10977 10978 10978 10979 10979 10980 10981 10981 10982 10983 10983 10984 10984 10984 10984 10984 10984 10984 10985 10984 10984 10984 10984 10984
10982 10983 10983 10984 10984 10985 10985 10986 10986 10987 10987 10987 10987 10988 10988 10989 10989 10990 10990 10991 10991 10991 10992 10993 10994 10995 10995 10995 10995 10996 10996 10996 10995 10993 10993 10992 10991 10990 10989 10989 10988 10987 10986 10985 10983 10982 10980 10979 10978 10977 10975 10973 10972 10971 10970 10969 10969 10969 10970 10970 10971 10972 10974 10975 10976 10976 10977 10977 10978 10979 10979 10980 10980 10981 10982 10983 10983 10984 10984 10983 10983 10983 10984 10984 10983 10983 10983 10983
10979 10980 10980 10980 10981 10981 10982 10982 10983 10983 10984 10984 10984 10985 10986 10986 10987 10987 10988 10988 10989 10989 10989 10990 10992 10993 10993 10994 10994 10995 10995 10995 10995 10993 10993 10992 10992 10991 10990 10989 10988 10987 10986 10985 10984 10983 10981 10980 10979 10978 10976 10974 10973 10971 10970 10969 10968 10968 10968 10969 10970 10971 10973 10974 10975 10975 10976 10976 10977 10977 10978 10978 10979 10980 10981 10982 10983 10983 10983 10983 10983 10983 10983 10983 10983 10983 10982 10982
10976 10976 10976 10977 10977 10978 10979 10979 10980 10980 10980 10981 10981 10982 10982 10983 10984 10985 10986 10986 10986 10986 10986 10987 10989 10990 10991 10993 10993 10994 10994 10994 10994 10993 10992 10992 10992 10991 10990 10989 10988 10988 10987 10986 10985 10984 10982 10981 10980 10979 10977 10975 10973 10972 10971 10969 10968 10967 10967 10968 10969 10970 10972 10973 10974 10974 10975 10976 10976 10977 10977 10978 10979 10980 10981 10981 10982 10983 10983 10983 10982 10982 10983 10983 10983 10982 10982 10982
10972 10972 10973 10973 10974 10974 10975 10975 10976 10976 10977 10977 10977 10978 10979 10979 10980 10981 10983 10984 10984 10984 10984 10984 10985 10987 10988 10990 10991 10992 10993 10992 10993 10993 10992 10991 10991 10991 10990 10989 10988 10988 10987 10986 10986 10985 10983 10982 10981 10979 10978 10976 10975 10973 10971 10970 10968 10967 10967 10967 10968 10969 10971 10972 10973 10974 10974 10975 10976 10976 10977 10978 10978 10979 10980 10981 10982 10982 10982 10982 10982 10982 10982 10982 10982 10982 10981 10981
10969 10969 10969 10969 10970 10970 10971 10971 10972 10972 10973 10973 10973 10974 10975 10976 10976 10977 10979 10980 10981 10981 10981 10981 10982 10983 10984 10987 10989 10991 10991 10991 10991 10991 10991 10991 10990 10989 10989 10988 10987 10987 10987 10986 10986 10985 10984 10983 10981 10980 10979 10978 10976 10974 10972 10971 10969 10968 10967 10967 10967 10968 10969 10972 10973 10973 10974 10975 10976 10976 10977 10977 10978 10979 10979 10980 10981 10981 10981 10982 10982 10982 10982 10981 10981 10981 10980 10980
10964 10964 10964 10965 10965 10966 10966 10967 10968 10968 10969 10969 10969 10970 10971 10972 10973 10974 10975 10976 10977 10978 10978 10978 10979 10979 10980 10983 10986 10989 10990 10989 10990 10990 10990 10990 10989 10988 10988 10988 10987 10986 10986 10986 10986 10985 10984 10983 10982 10981 10980 10979 10977 10975 10973 10971 10970 10968 10967 10967 10967 10967 10969 10971 10972 10973 10974 10975 10976 10976 10976 10977 10978 10978 10979 10979 10980 10980 10980 10981 10981 10981 10981 10980 10980 10980 10979 10979
10959 10959 10959 10960 10960 10961 10961 10962 10963 10964 10964 10964 10965 10966 10967 10968 10969 10970 10971 10972 10973 10974 10975 10975 10975 10976 10977 10979 10982 10986 10985 10985 10988 10989 10989 10988 10988 10987 10986 10986 10986 10985 10985 10985 10985 10985 10984 10983 10982 10981 10980 10980 10979 10977 10975 10973 10971 10970 10968 10967 10967 10967 10969 10970 10971 10972 10973 10975 10975 10975 10975 10976 10977 10977 10977 10978 10978 10979 10979 10980 10980 10980 10980 10979 10979 10979 10979 10979
10953 10953 10954 10954 10955 10955 10956 10957 10958 10959 10959 10959 10960 10961 10962 10963 10964 10966 10967 10968 10969 10970 10970 10971 10972 10972 10974 10975 10978 10980 10979 10981 10986 10987 10987 10986 10986 10986 10985 10985 10985 10985 10984 10984 10984 10984 10984 10984 10983 10982 10981 10980 10979 10978 10977 10975 10973 10972 10970 10969 10969 10968 10969 10970 10971 10972 10973 10974 10975 10975 10974 10975 10975 10976 10976 10976 10977 10978 10978 10979 10979 10979 10979 10979 10979 10979 10979 10979
10946 10947 10948 10948 10949 10949 10950 10951 10953 10954 10954 10954 10954 10955 10957 10958 10960 10961 10962 10963 10964 10965 10966 10967 10968 10968 10971 10972 10974 10975 10974 10978 10983 10984 10985 10984 10984 10985 10984 10984 10984 10984 10983 10983 10983 10983 10984 10984 10983 10982 10981 10981 10980 10980 10978 10977 10975 10974 10972 10972 10971 10970 10969 10970 10971 10972 10973 10974 10974 10974 10974 10974 10975 10975 10975 10975 10976 10976 10977 10978 10978 10978 10978 10978 10978 10979 10979 10979
10940 10941 10941 10942 10942 10943 10943 10944 10946 10948 10948 10948 10948 10949 10951 10953 10954 10956 10957 10959 10960 10961 10962 10962 10963 10964 10967 10969 10969 10970 10970 10974 10979 10981 10982 10982 10982 10983 10983 10983 10983 10983 10982 10982 10982 10982 10982 10983 10983 10982 10981 10981 10980 10980 10980 10979 10977 10975 10974 10973 10972 10971 10970 10970 10971 10972 10973 10974 10974 10974 10974 10974 10974 10974 10974 10975 10975 10976 10976 10977 10978 10978 10978 10978 10979 10979 10979 10979
10934 10935 10935 10936 10936 10936 10936 10937 10939 10941 10942 10942 10941 10942 10944 10946 10948 10949 10951 10953 10954 10955 10956 10958 10959 10959 10963 10965 10964 10965 10967 10970 10974 10976 10977 10979 10979 10980 10980 10981 10981 10981 10981 10980 10980 10980 10980 10981 10982 10982 10981 10981 10980 10980 10980 10980 10979 10977 10975 10974 10973 10973 10972 10971 10971 10972 10973 10974 10974 10974 10974 10973 10973 10973 10973 10974 10974 10975 10976 10977 10978 10979 10979 10978 10979 10980 10980 10980
10927 10927 10928 10929 10930 10930 10930 10930 10931 10933 10934 10934 10934 10935 10936 10938 10940 10942 10944 10947 10949 10950 10950 10952 10954 10954 10957 10960 10960 10960 10963 10965 10969 10971 10972 10974 10975 10977 10977 10979 10979 10979 10979 10979 10978 10978 10978 10979 10980 10981 10980 10980 10980 10980 10980 10980 10979 10978 10977 10975 10975 10975 10974 10974 10973 10973 10974 10974 10974 10974 10973 10973 10973 10972 10972 10973 10974 10975 10977 10978 10979 10980 10980 10979 10980 10980 10981 10981
10920 10920 10921 10922 10922 10923 10922 10923 10924 10926 10927 10927 10927 10928 10929 10930 10932 10934 10936 10939 10942 10943 10944 10946 10948 10949 10952 10955 10956 10955 10957 10960 10963 10966 10967 10968 10971 10973 10974 10975 10976 10977 10977 10977 10976 10976 10977 10977 10978 10979 10979 10979 10979 10979 10979 10979 10979 10979 10978 10977 10976 10976 10976 10976 10975 10975 10975 10975 10974 10974 10973 10972 10972 10973 10973 10973 10975 10976 10978 10979 10980 10981 10981 10981 10981 10981 10981 10982
10913 10913 10914 10915 10915 10915 10914 10915 10917 10918 10919 10919 10920 10921 10921 10922 10923 10925 10927 10930 10934 10935 10937 10939 10941 10943 10945 10949 10951 10951 10951 10954 10958 10960 10962 10964 10966 10968 10970 10971 10973 10974 10974 10975 10974 10973 10974 10975 10975 10977 10978 10978 10978 10978 10978 10978 10979 10979 10979 10978 10978 10977 10977 10977 10977 10977 10976 10975 10975 10974 10972 10972 10973 10974 10975 10974 10976 10977 10979 10981 10981 10981 10982 10982 10982 10982 10982 10982
10906 10906 10907 10908 10909 10908 10907 10908 10909 10910 10911 10912 10912 10913 10914 10914 10915 10917 10918 10921 10924 10927 10930 10931 10934 10936 10938 10942 10945 10945 10945 10947 10951 10955 10957 10959 10961 10963 10966 10968 10969 10970 10971 10972 10971 10971 10972 10973 10973 10974 10975 10977 10977 10977 10977 10977 10978 10978 10979 10979 10979 10978 10978 10978 10979 10978 10978 10977 10975 10974 10973 10973 10974 10976 10977 10976 10977 10978 10980 10982 10982 10982 10982 10982 10982 10982 10982 10982
10900 10900 10900 10901 10902 10902 10901 10900 10902 10902 10903 10904 10904 10904 10906 10907 10907 10908 10909 10911 10914 10918 10921 10923 10926 10928 10930 10935 10938 10939 10939 10941 10945 10949 10951 10953 10957 10959 10961 10963 10965 10966 10967 10969 10969 10968 10968 10970 10970 10970 10972 10975 10976 10976 10976 10976 10977 10978 10978 10978 10978 10978 10978 10978 10979 10979 10979 10978 10976 10975 10975 10974 10975 10977 10978 10977 10978 10979 10981 10982 10983 10983 10983 10983 10983 10983 10983 10983
10894 10894 10894 10894 10895 10895 10894 10894 10895 10895 10895 10896 10896 10897 10898 10899 10900 10900 10900 10902 10904 10907 10911 10915 10917 10919 10922 10927 10930 10931 10932 10934 10938 10943 10945 10948 10951 10954 10956 10958 10960 10962 10964 10965 10965 10964 10965 10967 10967 10966 10969 10972 10974 10974 10975 10975 10975 10976 10977 10977 10978 10978 10977 10977 10978 10979 10979 10979 10977 10976 10976 10976 10976 10978 10979 10978 10979 10980 10982 10983 10984 10984 10984 10984 10983 10984 10984 10984
10890 10889 10889 10889 10889 10890 10888 10888 10888 10888 10887 10888 10889 10890 10890 10891 10892 10893 10893 10893 10894 10898 10901 10905 10908 10908 10913 10920 10922 10924 10925 10927 10931 10936 10939 10941 10944 10948 10951 10953 10955 10958 10959 10960 10961 10961 10963 10964 10962 10961 10965 10969 10971 10972 10973 10973 10973 10974 10975 10976 10976 10977 10977 10977 10977 10978 10979 10978 10978 10977 10976 10977 10977 10978 10979 10979 10979 10980 10982 10983 10984 10985 10985 10985 10984 10984 10985 10985
10884 10884 10883 10883 10884 10885 10884 10882 10882 10882 10881 10881 10882 10883 10883 10883 10884 10885 10885 10884 10885 10889 10891 10895 10899 10899 10904 10910 10913 10916 10917 10919 10924 10929 10932 10934 10938 10941 10944 10947 10949 10951 10954 10956 10957 10958 10960 10960 10957 10957 10961 10964 10968 10970 10970 10971 10971 10972 10973 10974 10975 10975 10976 10976 10976 10976 10977 10978 10977 10976 10976 10977 10977 10978 10979 10979 10979 10980 10981 10983 10984 10984 10985 10985 10985 10985 10985 10985
10879 10877 10877 10877 10878 10879 10879 10878 10877 10876 10875 10876 10876 10876 10876 10877 10877 10877 10878 10875 10875 10881 10884 10885 10889 10891 10895 10899 10902 10907 10910 10911 10916 10921 10924 10928 10931 10935 10938 10941 10943 10945 10949 10952 10952 10954 10956 10954 10951 10953 10956 10960 10964 10966 10966 10968 10969 10969 10970 10971 10972 10973 10974 10975 10976 10975 10976 10976 10976 10976 10976 10976 10977 10977 10978 10979 10979 10980 10981 10982 10983 10984 10984 10984 10985 10985 10985 10985
10873 10871 10870 10870 10870 10872 10873 10872 10872 10871 10869 10870 10870 10869 10869 10870 10870 10870 10871 10869 10865 10871 10877 10877 10880 10883 10886 10889 10891 10896 10900 10903 10907 10912 10917 10920 10922 10926 10930 10932 10936 10941 10944 10946 10947 10949 10950 10948 10947 10949 10953 10956 10959 10962 10964 10965 10966 10966 10967 10968 10970 10971 10972 10973 10974 10974 10974 10974 10974 10974 10975 10975 10975 10976 10977 10978 10979 10979 10980 10981 10982 10983 10983 10983 10984 10984 10984 10985
10868 10866 10864 10863 10863 10865 10866 10866 10866 10865 10864 10864 10864 10864 10864 10864 10864 10863 10863 10864 10858 10860 10869 10871 10871 10874 10877 10880 10881 10883 10888 10893 10899 10903 10907 10910 10913 10918 10922 10925 10930 10935 10937 10938 10942 10943 10944 10944 10942 10944 10949 10952 10954 10957 10959 10960 10961 10963 10964 10965 10966 10968 10970 10971 10971 10972 10972 10972 10972 10973 10973 10973 10974 10975 10975 10976 10977 10978 10979 10980 10981 10982 10982 10983 10983 10983 10984 10984
10862 10860 10858 10856 10856 10856 10859 10860 10860 10859 10858 10857 10857 10857 10858 10858 10858 10857 10857 10858 10853 10850 10858 10864 10864 10865 10869 10872 10872 10872 10876 10883 10890 10894 10897 10900 10905 10910 10914 10918 10922 10926 10930 10932 10935 10937 10939 10940 10936 10938 10945 10948 10949 10952 10954 10955 10958 10959 10960 10960 10962 10965 10967 10968 10968 10969 10970 10970 10971 10970 10971 10971 10972 10973 10974 10974 10975 10976 10977 10978 10979 10980 10981 10981 10982 10982 10983 10983
10856 10855 10852 10850 10849 10849 10850 10853 10854 10852 10851 10850 10850 10850 10851 10851 10851 10851 10851 10853 10849 10844 10848 10854 10855 10857 10860 10862 10864 10864 10866 10872 10879 10884 10887 10890 10897 10901 10905 10910 10913 10917 10922 10924 10929 10932 10934 10934 10930 10932 10939 10943 10945 10947 10947 10949 10952 10954 10954 10955 10959 10962 10964 10965 10965 10965 10967 10968 10969 10968 10969 10970 10970 10971 10972 10973 10974 10975 10976 10977 10978 10979 10980 10980 10981 10981 10981 10981
10849 10849 10847 10843 10842 10841 10841 10844 10847 10846 10844 10843 10843 10844 10844 10844 10844 10844 10844 10846 10845 10840 10840 10843 10846 10848 10851 10853 10856 10856 10858 10863 10868 10874 10877 10880 10887 10891 10894 10900 10902 10907 10913 10916 10921 10925 10926 10926 10923 10925 10933 10938 10941 10940 10939 10942 10945 10947 10949 10951 10955 10958 10960 10961 10961 10962 10964 10966 10966 10966 10967 10968 10969 10970 10970 10971 10972 10973 10974 10975 10976 10977 10978 10978 10978 10979 10979 10980
10841 10842 10841 10837 10835 10834 10833 10835 10839 10838 10837 10837 10836 10837 10837 10837 10837 10837 10838 10839 10837 10834 10834 10835 10837 10840 10841 10843 10847 10848 10850 10854 10859 10865 10867 10869 10876 10881 10885 10890 10892 10897 10905 10908 10912 10917 10918 10919 10918 10918 10926 10933 10934 10932 10933 10935 10937 10941 10946 10948 10950 10954 10957 10958 10958 10959 10961 10964 10964 10963 10964 10965 10966 10967 10968 10968 10969 10971 10973 10973 10974 10975 10975 10976 10976 10976 10977 10978
10833 10834 10834 10831 10827 10827 10825 10826 10829 10829 10829 10830 10829 10829 10830 10830 10830 10830 10832 10832 10826 10825 10828 10829 10830 10831 10833 10835 10837 10840 10843 10846 10849 10855 10859 10860 10864 10870 10875 10879 10882 10888 10896 10899 10904 10911 10914 10914 10913 10913 10920 10926 10926 10927 10929 10929 10930 10934 10940 10944 10946 10950 10953 10954 10955 10955 10958 10961 10961 10959 10960 10962 10964 10964 10964 10965 10967 10969 10970 10970 10972 10972 10973 10974 10974 10975 10975 10975
10825 10825 10826 10824 10820 10818 10817 10818 10819 10820 10820 10821 10820 10821 10822 10823 10824 10825 10827 10822 10815 10818 10821 10821 10823 10824 10826 10828 10829 10831 10834 10837 10840 10844 10849 10852 10853 10858 10864 10869 10874 10879 10885 10891 10896 10903 10906 10906 10907 10909 10913 10918 10921 10923 10924 10924 10924 10927 10934 10940 10943 10946 10949 10950 10951 10953 10956 10959 10958 10956 10957 10959 10961 10960 10960 10963 10965 10966 10966 10967 10969 10971 10971 10972 10972 10972 10972 10973
10816 10816 10816 10817 10814 10809 10808 10809 10809 10810 10812 10811 10810 10812 10813 10816 10819 10819 10818 10811 10807 10811 10813 10812 10816 10817 10819 10822 10823 10824 10825 10826 10829 10833 10838 10842 10845 10848 10851 10857 10864 10868 10875 10881 10884 10890 10897 10897 10897 10901 10904 10908 10914 10917 10916 10919 10920 10920 10926 10935 10939 10941 10945 10947 10949 10951 10953 10955 10953 10951 10954 10955 10955 10956 10959 10960 10961 10962 10962 10964 10966 10968 10969 10969 10970 10970 10970 10970
10806 10806 10806 10807 10806 10802 10799 10799 10797 10799 10802 10801 10801 10803 10803 10808 10814 10812 10807 10803 10800 10803 10803 10804 10808 10809 10811 10813 10815 10817 10817 10817 10820 10823 10826 10831 10836 10839 10841 10845 10852 10858 10864 10869 10872 10880 10888 10887 10888 10894 10896 10900 10906 10910 10911 10915 10916 10914 10919 10929 10934 10936 10940 10943 10945 10947 10949 10950 10947 10946 10952 10951 10949 10953 10957 10956 10958 10960 10959 10961 10963 10964 10965 10966 10967 10967 10968 10968
10795 10796 10796 10796 10796 10794 10791 10789 10787 10787 10790 10792 10792 10792 10795 10802 10805 10800 10797 10795 10793 10793 10795 10796 10797 10799 10802 10804 10807 10809 10809 10810 10812 10813 10816 10820 10825 10830 10832 10834 10840 10845 10850 10857 10863 10871 10877 10879 10884 10889 10890 10892 10898 10902 10905 10907 10908 10907 10911 10919 10925 10930 10935 10937 10939 10941 10942 10943 10940 10942 10950 10948 10942 10948 10954 10953 10955 10958 10957 10957 10958 10960 10962 10963 10964 10964 10965 10966
10782 10783 10785 10784 10784 10784 10782 10779 10777 10774 10777 10781 10781 10783 10789 10794 10792 10788 10788 10787 10784 10784 10786 10787 10787 10789 10792 10795 10799 10801 10801 10803 10804 10803 10807 10811 10813 10818 10822 10824 10828 10831 10838 10847 10853 10858 10865 10870 10875 10878 10879 10882 10887 10891 10895 10897 10900 10902 10902 10909 10918 10924 10928 10929 10931 10934 10934 10936 10936 10939 10946 10943 10937 10944 10951 10951 10953 10954 10953 10954 10955 10956 10959 10960 10961 10961 10962 10963
10769 10769 10772 10773 10772 10771 10770 10769 10766 10763 10764 10767 10770 10776 10782 10782 10779 10778 10779 10777 10775 10775 10776 10776 10778 10780 10783 10786 10789 10791 10793 10795 10796 10795 10798 10801 10803 10807 10810 10814 10817 10819 10826 10835 10840 10846 10853 10858 10863 10866 10869 10874 10878 10880 10884 10888 10894 10895 10894 10903 10913 10917 10920 10922 10925 10927 10928 10932 10934 10936 10941 10937 10934 10942 10947 10947 10949 10949 10949 10950 10951 10953 10955 10956 10957 10958 10959 10960
10756 10755 10757 10759 10760 10758 10757 10756 10753 10751 10752 10753 10759 10768 10771 10768 10767 10766 10767 10767 10766 10766 10766 10766 10769 10771 10773 10775 10778 10782 10785 10786 10788 10788 10788 10791 10795 10797 10799 10802 10806 10809 10813 10821 10827 10835 10841 10845 10852 10857 10860 10865 10867 10867 10872 10879 10884 10886 10890 10898 10902 10905 10911 10915 10918 10921 10924 10929 10931 10932 10934 10931 10931 10940 10943 10942 10944 10944 10945 10947 10948 10949 10950 10951 10953 10954 10955 10956
10743 10741 10741 10744 10745 10744 10743 10742 10740 10739 10738 10740 10749 10757 10757 10755 10755 10754 10754 10755 10755 10757 10758 10758 10760 10761 10763 10764 10766 10772 10775 10776 10779 10781 10780 10782 10785 10787 10788 10790 10794 10797 10801 10808 10815 10823 10829 10833 10842 10849 10849 10851 10854 10853 10860 10871 10878 10881 10886 10890 10890 10895 10904 10908 10912 10917 10920 10925 10927 10926 10928 10925 10928 10936 10937 10937 10939 10939 10941 10943 10943 10944 10945 10946 10948 10950 10951 10952
10731 10727 10726 10727 10728 10729 10729 10728 10726 10724 10724 10729 10737 10741 10741 10741 10743 10741 10741 10742 10744 10748 10750 10749 10749 10751 10753 10753 10755 10762 10764 10765 10770 10772 10771 10774 10776 10777 10778 10779 10782 10785 10790 10797 10803 10811 10819 10822 10830 10837 10836 10838 10843 10845 10853 10867 10874 10875 10880 10882 10884 10890 10897 10900 10906 10911 10914 10918 10920 10921 10922 10920 10922 10928 10931 10932 10933 10934 10936 10938 10939 10940 10941 10942 10944 10945 10947 10947
10718 10713 10711 10711 10710 10711 10712 10711 10711 10710 10711 10716 10721 10723 10725 10727 10729 10729 10728 10728 10731 10736 10739 10739 10739 10742 10743 10742 10745 10750 10753 10755 10760 10762 10763 10765 10767 10768 10768 10768 10771 10774 10778 10786 10793 10800 10807 10810 10818 10825 10823 10826 10836 10844 10855 10864 10866 10868 10874 10877 10879 10884 10888 10891 10900 10905 10907 10913 10915 10916 10919 10915 10913 10919 10924 10926 10927 10929 10931 10933 10934 10936 10937 10938 10939 10941 10942 10943
10700 10698 10697 10696 10693 10692 10693 10693 10694 10695 10697 10701 10704 10705 10708 10711 10714 10715 10714 10714 10718 10723 10726 10727 10729 10731 10732 10732 10734 10738 10742 10744 10748 10752 10755 10757 10757 10757 10757 10758 10761 10764 10767 10775 10783 10789 10795 10799 10804 10811 10813 10820 10832 10843 10847 10849 10851 10858 10865 10868 10871 10876 10877 10882 10893 10899 10902 10909 10912 10913 10915 10909 10904 10910 10916 10919 10922 10924 10926 10928 10931 10932 10932 10933 10934 10936 10937 10938
10681 10679 10679 10678 10675 10673 10673 10675 10675 10676 10679 10686 10688 10688 10690 10695 10697 10699 10700 10701 10703 10708 10712 10714 10718 10720 10720 10722 10724 10726 10730 10733 10737 10742 10745 10747 10747 10747 10748 10749 10750 10754 10758 10765 10772 10777 10782 10787 10791 10798 10806 10814 10823 10831 10832 10833 10839 10845 10851 10856 10859 10863 10866 10875 10888 10893 10896 10904 10908 10907 10909 10906 10900 10902 10908 10913 10916 10918 10920 10923 10925 10927 10927 10927 10929 10930 10931 10932
10662 10660 10657 10658 10658 10654 10653 10656 10656 10656 10660 10666 10669 10670 10673 10677 10680 10682 10685 10686 10688 10692 10696 10701 10705 10706 10708 10711 10712 10714 10718 10722 10726 10731 10735 10738 10738 10737 10738 10739 10741 10745 10749 10753 10759 10763 10770 10778 10782 10789 10799 10804 10809 10814 10817 10821 10825 10829 10839 10848 10850 10856 10864 10873 10882 10884 10887 10896 10898 10899 10906 10904 10896 10895 10899 10904 10908 10911 10914 10917 10918 10920 10921 10922 10923 10925 10926 10928
10642 10640 10636 10636 10638 10636 10634 10635 10636 10637 10641 10645 10648 10652 10655 10658 10661 10664 10668 10670 10672 10675 10681 10687 10691 10693 10696 10698 10700 10702 10706 10711 10716 10720 10724 10727 10728 10726 10727 10731 10734 10736 10739 10741 10746 10753 10761 10769 10773 10778 10786 10792 10795 10800 10807 10815 10818 10822 10835 10843 10847 10855 10861 10866 10871 10872 10879 10889 10890 10895 10905 10900 10891 10890 10892 10894 10899 10903 10907 10910 10912 10915 10916 10916 10917 10920 10922 10923
10619 10617 10614 10613 10615 10616 10613 10613 10616 10618 10621 10624 10628 10631 10634 10638 10643 10646 10650 10654 10656 10660 10666 10672 10676 10679 10682 10685 10688 10691 10694 10699 10705 10708 10712 10716 10717 10716 10717 10722 10725 10726 10729 10731 10736 10745 10752 10758 10765 10769 10776 10785 10789 10795 10806 10814 10815 10819 10829 10837 10843 10849 10852 10856 10859 10862 10875 10885 10884 10892 10901 10895 10888 10887 10886 10887 10891 10894 10898 10903 10906 10908 10910 10910 10912 10914 10917 10918
10596 10593 10591 10588 10590 10592 10591 10591 10594 10595 10597 10602 10608 10610 10612 10617 10623 10627 10632 10637 10640 10644 10650 10656 10661 10665 10669 10672 10676 10679 10681 10687 10692 10695 10700 10704 10706 10705 10708 10713 10715 10716 10720 10722 10728 10735 10741 10748 10756 10761 10768 10777 10783 10788 10796 10801 10802 10807 10815 10823 10830 10835 10839 10844 10846 10856 10873 10876 10875 10886 10893 10888 10887 10887 10881 10881 10885 10887 10890 10894 10898 10900 10903 10905 10907 10909 10911 10913
10570 10569 10567 10564 10563 10564 10566 10568 10569 10570 10573 10580 10586 10590 10591 10595 10602 10608 10614 10619 10622 10626 10633 10639 10645 10651 10655 10659 10663 10666 10669 10673 10678 10684 10689 10693 10695 10696 10699 10703 10705 10707 10711 10715 10720 10726 10731 10739 10746 10751 10758 10766 10770 10774 10779 10784 10790 10796 10800 10807 10814 10820 10825 10829 10838 10853 10862 10860 10867 10880 10882 10881 10887 10887 10878 10874 10877 10880 10882 10885 10890 10892 10895 10900 10902 10903 10905 10907
10542 10542 10541 10539 10538 10537 10538 10541 10543 10545 10551 10557 10562 10568 10571 10574 10580 10586 10594 10600 10605 10609 10616 10623 10630 10636 10641 10644 10648 10652 10656 10660 10666 10673 10677 10681 10685 10685 10688 10692 10695 10699 10703 10707 10712 10717 10722 10729 10735 10740 10747 10753 10757 10761 10766 10771 10779 10784 10788 10796 10802 10807 10813 10819 10831 10843 10844 10847 10861 10869 10868 10874 10882 10880 10874 10867 10867 10872 10875 10876 10882 10886 10889 10894 10897 10898 10899 10901
10513 10513 10513 10513 10514 10511 10509 10511 10516 10521 10527 10533 10538 10545 10549 10552 10557 10563 10573 10583 10588 10593 10599 10606 10612 10619 10623 10627 10633 10640 10644 10648 10654 10659 10664 10670 10673 10673 10677 10681 10685 10689 10693 10697 10703 10709 10714 10720 10724 10729 10737 10743 10747 10751 10756 10762 10767 10771 10778 10786 10791 10798 10806 10814 10824 10830 10830 10838 10851 10853 10854 10865 10871 10870 10868 10861 10858 10863 10866 10870 10877 10882 10884 10888 10890 10892 10894 10895
10483 10484 10485 10486 10488 10487 10483 10484 10489 10496 10503 10509 10515 10522 10526 10531 10535 10543 10554 10565 10570 10574 10579 10584 10592 10600 10606 10615 10624 10628 10631 10635 10640 10647 10654 10659 10661 10662 10666 10672 10676 10681 10685 10689 10695 10701 10706 10710 10713 10719 10728 10733 10738 10742 10746 10751 10756 10760 10769 10777 10783 10791 10799 10807 10815 10820 10822 10832 10841 10842 10848 10859 10862 10861 10860 10855 10852 10856 10861 10866 10872 10875 10877 10880 10883 10886 10888 10890
10454 10455 10456 10458 10460 10461 10459 10459 10463 10470 10478 10484 10491 10498 10504 10509 10516 10525 10535 10543 10548 10552 10558 10565 10576 10588 10597 10605 10610 10612 10617 10625 10630 10636 10644 10648 10649 10652 10657 10662 10667 10673 10676 10680 10687 10693 10698 10700 10703 10710 10717 10724 10728 10732 10735 10740 10744 10749 10757 10767 10775 10783 10791 10800 10808 10813 10818 10826 10832 10836 10846 10856 10856 10852 10851 10849 10848 10852 10857 10861 10864 10867 10870 10873 10877 10880 10882 10884
10427 10428 10429 10432 10435 10434 10433 10435 10441 10447 10453 10459 10466 10475 10483 10488 10496 10504 10512 10520 10526 10533 10542 10553 10564 10574 10582 10587 10593 10600 10609 10616 10620 10625 10632 10636 10639 10643 10647 10651 10657 10664 10668 10673 10679 10685 10689 10692 10694 10700 10708 10714 10717 10720 10724 10728 10730 10736 10748 10760 10770 10778 10786 10794 10801 10807 10813 10819 10824 10833 10844 10849 10844 10841 10842 10843 10844 10848 10853 10855 10857 10860 10864 10867 10871 10874 10876 10878